Simultaneous Nadir Overpasses (SNOs) Predictions

Prediction of SNOs between METOP-B and TERRA Satellite Orbit:

Table of predicted SNOs for the next 14.0 days since TLE Epoch: 12/17/2022
Index Date (METOP-B) Time (METOP-B) Lat,Lon (METOP-B) SZA (METOP-B ) Date (TERRA) Time (TERRA) Lat,Lon (TERRA) SZA (TERRA ) Distance(km) Time Diff (sec)
1 12/19/2022 02:03:07 -81.01, 6.12 73.85 12/19/2022 02:03:26 -81.01, 5.98 73.86 2.54 19
2 12/19/2022 02:53:47 81.02, 173.76 106.19 12/19/2022 02:52:48 81.02, 173.81 106.17 0.77 59
3 12/21/2022 18:14:49 -80.98, 122.54 73.93 12/21/2022 18:15:06 -80.98, 122.67 73.92 2.20 17
4 12/21/2022 19:05:27 81.03, -69.10 106.20 12/21/2022 19:04:27 81.02, -69.14 106.17 0.90 60
5 12/24/2022 10:26:28 -81.00,-119.99 73.94 12/24/2022 10:26:44 -81.00,-120.08 73.95 1.60 16
6 12/24/2022 11:17:08 81.01, 47.62 106.10 12/24/2022 11:16:06 81.01, 47.76 106.09 2.45 62
7 12/27/2022 02:38:07 -81.00, -2.93 74.06 12/27/2022 02:38:21 -81.00, -2.97 74.05 0.66 14
8 12/27/2022 03:28:46 81.02, 165.02 106.03 12/27/2022 03:27:43 81.01, 164.87 105.98 2.88 63
9 12/29/2022 18:49:47 -80.99, 114.07 74.23 12/29/2022 18:49:59 -80.99, 113.99 74.24 1.32 12



Historial Predications of SNOs between METOP-B and TERRA
